This is the latest recevied weather packets stored in our database for station/object ZS1DFR-1. If no packets are shown the sender has not sent any weather packets the latest 10 day(s).
| Time | Temp. | Humidity | Pressure | Rain* | Wind** | Luminosity | Snow |
|---|---|---|---|---|---|---|---|
| 1777971213 | 16.11° C | 99% | 1014.4 hPa | 0 mm | - | - | - |
| 1777970313 | 16.11° C | 99% | 1014.4 hPa | 0 mm | - | - | - |
| 1777969413 | 13.89° C | 99% | 1014.5 hPa | 0 mm | - | - | - |
| 1777968515 | 13.89° C | 99% | 1014.5 hPa | 0 mm | - | - | - |
| 1777967613 | 13.33° C | 99% | 1014.3 hPa | 0 mm | - | - | - |
| 1777966713 | 13.33° C | 99% | 1014.3 hPa | 0 mm | - | - | - |
| 1777965813 | 12.22° C | 99% | 1013.8 hPa | 0 mm | - | - | - |
| 1777964949 | 12.22° C | 99% | 1013.8 hPa | 0 mm | - | - | - |
| 1777964013 | 12.78° C | 99% | 1013.4 hPa | 0 mm | - | - | - |
| 1777963113 | 12.78° C | 99% | 1013.4 hPa | 0 mm | - | - | - |
| 1777962213 | 11.11° C | 99% | 1013.3 hPa | 0 mm | - | - | - |
| 1777961314 | 11.11° C | 99% | 1013.3 hPa | 0 mm | - | - | - |
| 1777960413 | 11.11° C | 99% | 1013.2 hPa | 0 mm | - | - | - |
| 1777959513 | 11.11° C | 99% | 1013.2 hPa | 0 mm | - | - | - |
| 1777958613 | 10.56° C | 99% | 1012.7 hPa | 0 mm | - | - | - |
| 1777957713 | 10.56° C | 99% | 1012.7 hPa | 0 mm | - | - | - |
| 1777956813 | 11.11° C | 99% | 1012.6 hPa | 0 mm | - | - | - |
| 1777955913 | 11.11° C | 99% | 1012.6 hPa | 0 mm | - | - | - |
| 1777955013 | 10.56° C | 99% | 1012.5 hPa | 0 mm | - | - | - |
| 1777954113 | 10.56° C | 99% | 1012.5 hPa | 0 mm | - | - | - |
| 1777953213 | 10.56° C | 98% | 1012.1 hPa | 0 mm | - | - | - |
| 1777952313 | 10.56° C | 98% | 1012.1 hPa | 0 mm | - | - | - |
| 1777951413 | 10.56° C | 98% | 1012.2 hPa | 0 mm | - | - | - |
| 1777950513 | 10.56° C | 98% | 1012.2 hPa | 0 mm | - | - | - |
| 1777949613 | 11.11° C | 98% | 1012.1 hPa | 0 mm | - | - | - |
* Rain latest hour (hover to see other rain measurements)
** Current wind speed in m/s (hover to see current wind gust speed)